Location: Unspecified
(0.0000°N, 0.0000°E)
Time: 23:09:29
(UTC+00:00)

Courier 1B Rocket - Pass Details

Date: 06 October 2020
Orbit: 920 x 1202 km, 28.2° (Epoch: 28 October)

Event Time Altitude Azimuth Distance (km) Brightness Sun altitude
Rises 01:43:27 0° 269° (W) 4,017 - -60.7°
Reaches altitude 10° 01:47:00 10° 283° (WNW) 3,013 - -59.9°
Maximum altitude 01:52:37 23° 332° (NNW) 2,121 - -58.5°
Drops below altitude 10° 01:58:00 10° 23° (NNE) 2,849 - -57.2°
Sets 02:01:15 0° 37° (NE) 3,749 - -56.4°
